Regional Weather Roundup
Issued by NWS

Home | Current Version | Previous Version | Text Only | Print | Product List | Glossary On
Versions: 1 2 3 4 5 6 7 8 9 10 11 12 13 14 15 16 17 18 19 20 21 22 23 24 25 26 27 28 29 30 31 32 33 34 35 36 37 38 39 40 41 42 43 44 45 46 47 48 49 50
000
ASHW40 PHFO 222012
RWRHI

WEATHER ROUNDUP FOR HAWAII
NATIONAL WEATHER SERVICE HONOLULU HI
1000 AM HST WED FEB 22 2017

THIS IS AN AUTOMATED REPORT THAT HAS NOT BEEN QUALITY CONTROLLED.

NOTE..."FAIR" INDICATES FEW OR NO CLOUDS BELOW 12,000 FEET WITH NO
SIGNIFICANT WEATHER AND/OR OBSTRUCTIONS TO VISIBILITY.

* - THESE SITES REPORT LIMITED FIELDS

HIZ001>004-222100-
KAUAI-NIIHAU-

CITY           SKY/WX    TMP DP  RH WIND       PRES   REMARKS
LIHUE APT      MOSUNNY   75  60  59 NE18      30.29S
PORT ALLEN*      N/A     75 N/A N/A E18G26      N/A
POIPU*           N/A     73 N/A N/A NE12G21     N/A
PRINCEVILLE*     N/A     72 N/A N/A E10G17      N/A
KOKOLE POINT*  NOT AVBL
MOLOAA DAIRY*    N/A     72  59  64 E8G18       N/A
WAIMEA HTS*    NOT AVBL
PUU OPAE*      NOT AVBL
PUU LUA*       NOT AVBL
MAKAHA RIDGE*  NOT AVBL
$$

HIZ005>011-222100-
OAHU-

CITY           SKY/WX    TMP DP  RH WIND       PRES   REMARKS
HONOLULU       MOSUNNY   77  57  50 E20G25    30.26R
KALAELOA       SUNNY     79  57  46 E14G22    30.27R
KANEOHE MCB    NOT AVBL
WHEELER FIELD  MOSUNNY   72  58  62 E7        30.27R
BELLOWS*       NOT AVBL
KAHUKU*        NOT AVBL
WHEELER*       NOT AVBL
WAIANAE HARBOR NOT AVBL
DILLINGHAM*    NOT AVBL
KAHUKU TRN*      N/A     75  61  60 W12G25      N/A
KAWAILOA*        N/A     66  57  72 E16G28      N/A
KII*             N/A    N/A N/A N/A E22G28      N/A
MAKUA RANGE*     N/A     77  59  53 W13G23      N/A
OAHU FOREST NW NOT AVBL
SCHOFIELD BRK*   N/A     70  57  64 MISG        N/A
SCHOFIELD S*   NOT AVBL
WAIANAE VLY*   NOT AVBL
KUAOKALA*      NOT AVBL
HONOULIUULI*   NOT AVBL
MOKUOLOE IS*   NOT AVBL
PALEHUA*       NOT AVBL
WAIAWA PHB*    NOT AVBL
$$

HIZ012>013-222100-
MOLOKAI-

CITY           SKY/WX    TMP DP  RH WIND       PRES   REMARKS
MOLOKAI AIRPT  SUNNY     76  60  57 NE20G31   30.26R
KALAUPAPA      NOT AVBL
MAKAPULAPAI*   NOT AVBL
MOLOKAI 1*     NOT AVBL
PUU ALII*      NOT AVBL
$$

HIZ016-222100-
KAHOOLAWE-

CITY           SKY/WX    TMP DP  RH WIND       PRES   REMARKS
KAHOOLAWE*     NOT AVBL
HAKIOAWA*      NOT AVBL
HONOKANAIA*      N/A     80  57  44 W3G14     30.17S
KANELOA*         N/A     72  57  60 NE12G22   30.28S
KEALIALALO*    NOT AVBL
LUA MAKIKA*    NOT AVBL
$$

HIZ014>015-222100-
LANAI-

CITY           SKY/WX    TMP DP  RH WIND       PRES   REMARKS
LANAI CITY       N/A     71  58  63 NE23G31   30.26R
LANAI 1*       NOT AVBL
$$

HIZ017>028-222100-
MAUI-

CITY           SKY/WX    TMP DP  RH WIND       PRES   REMARKS
KAHULUI        MOSUNNY   76  61  59 NE21G28   30.27R
KAPALUA-W MAUI MOSUNNY   73  57  56 NE21G35   30.25R
HANA AIRPORT   CLOUDY    75  61  60 NE9       30.32R
HANA*            N/A     73 N/A N/A E13G20      N/A
HALEAKALA SUMM   N/A     46  18  31 W5G18       N/A
MAALAEA BAY*   NOT AVBL
HALEAKALA*     NOT AVBL
KAUPO GAP*     NOT AVBL
KULA 1*          N/A     57  32  39 N3G9        N/A
$$

HIZ023>026-222100-
BIG ISLAND OF HAWAII COAST AND LOWER SLOPES-

CITY           SKY/WX    TMP DP  RH WIND       PRES   REMARKS
KAILUA KONA    MOSUNNY   77  62  59 VRB6      30.19R
HILO           PTSUNNY   75  61  61 NE10      30.28R
HONOKAA*         N/A     66 N/A N/A VRB1        N/A
KAWAIHAE MWT*    N/A     77 N/A N/A SW8         N/A
KAWAIHAE*      NOT AVBL
SOUTH POINT*     N/A     72 N/A N/A N28G38      N/A
UPOLU AIRPORT* NOT AVBL
KAMUELA*       PTCLDY    64  55  72 NE22G36   30.29R
HAKALAU*         N/A     48  48 100 NE2         N/A
KALOKO-HONOKO* NOT AVBL
PALI 2*          N/A     66  54  63 S24G36      N/A
KEALAKOMO*       N/A     75  59  57 N21G29      N/A
KAUPULEHU*     NOT AVBL
KAPAPALA*        N/A     75  56  51 W5G13       N/A
LOWER KAHUKU*  NOT AVBL
PUHE CS*       NOT AVBL
PUHO CS*       NOT AVBL
PTA KEAMUKU*     N/A     64  52  63 CALM        N/A
WAIKOLOA*      NOT AVBL
$$

HIZ027>028-222100-
BIG ISLAND OF HAWAII INTERIOR AND SUMMMITS-

CITY           SKY/WX    TMP DP  RH WIND       PRES   REMARKS
BRADSHAW FIELD SUNNY     56  46  67 S13       30.45R
MK VISITOR CEN   N/A     48  10  21 SE7         N/A
MAUNA KEA*       N/A     28   1  31 E2          N/A
MAUNA LOA*       N/A     37   0  20 MISG        N/A
MAUNA LOA 1*   NOT AVBL
PTA KIPUKA*      N/A    N/A N/A N/A SW5         N/A
PTA RANGE 17*    N/A     66  50  55 SE18G31     N/A
PTA WEST*        N/A    N/A N/A N/A SE15G26     N/A
NENE CABIN*    NOT AVBL
AHUMOA*        NOT AVBL
PTA PORTABLE*  NOT AVBL
PUU MALI*        N/A     55  41  58 E18G26      N/A
$$

HIC003-222100-
NORTHWEST ISLANDS-

CITY           SKY/WX    TMP DP  RH WIND       PRES   REMARKS
MIDWAY ISLAND  CLOUDY    72  68  88 S18       30.19R
MIDWAY NOS*      N/A     72 N/A N/A MISG      30.17R
FRENCH FRIGATE NOT AVBL
$$

PHZ110>124-180-222100-
BUOY REPORTS

STATION/POSITION TIME  TEMP    WIND        PRES    WAVE   SWELL
                       AIR SEA DIR/SP/G            HT/PER HT/DIR
                 (UTC) (F)     (DEG/KT/KT) (MB)    (FT/S) (FT/D)
BUOY 51001       1950   71 72   80/ 16/ 19 1027.0S   7/15   5/310
BUOY 51101       1950   72 72   80/ 16/ 19 1027.3S   7/15   5/320
BUOY 51100       NOT AVBL
BUOY 51002       1950   76 77   60/ 23/ 29 1021.5R  12/ 9   8/ 80
BUOY 51003       1950   72 77   60/ 21/ 27 1023.0R  10/ 8   2/320
BUOY 51004       1950      77   50/ 21/ 31 1021.5R  12/ 8   7/ 20
BARBERS PT BUOY  NOT AVBL
WAIMEA BAY BUOY  1902      74                N/A     6/10   2/360
KAILUA BAY BUOY  1934      75                N/A     8/ 8   2/ 40
LANAI BUOY       1945      76                N/A     3/ 3
BARBERS PT 2     NOT AVBL
PAUWELA MAUI     1939      75                N/A     8/ 8   2/340
HILO             1942      76                N/A     9/ 8   2/ 10
KANEOHE BAY BUOY 1936      75                N/A     7/ 7   2/ 30
HANALEI KAUAI    1952      76                N/A     7/ 8   2/ 20
KAHULUI HARBOR   1948   73 74   50/ 18/ 21 1025.1R
HONOLULU HARBOR  1948   74 75   50/  9/ 18 1025.5R
KILO NALU        NOT AVBL
HILO HARBOR      1948   75 75   40/ 11/ 20 1024.9R
MOKUOLOE         1936   73 72   70/ 17/ 20 1025.4R
NAWILIWILI       1948   73      60/ 19/ 22 1025.2S
WHOTS BUOY       NOT AVBL
BUOY 51028       NOT AVBL
$$

......................KEY........................................
  SKY/WX - SKY CONDITIONS/PRESENT WEATHER
  TMP    - TEMPERATURE IN FAHRENHEIT
  DWPT   - DEWPOINT IN FAHRENHEIT
  RH     - RELATIVE HUMIDITY IN PERCENT
  WIND   - DIRECTION AND SPEED /MPH FOR ISLANDS...KTS FOR BUOYS/
  PRES   - MEAN SEA LEVEL PRESSURE IN INCHES OF HG
  VSB    - VISIBILITY IN MILES
  HX     - HEAT INDEX
  WCI    - WIND CHILL INDEX
  VRB    - VARIABLE WIND DIRECTION
  N/A    - NOT AVAILABLE




USA.gov is the U.S. government's official web portal to all federal, state and local government web resources and services.